Regional Weather Roundup
Issued by NWS Sioux Falls, SD

Home | Current Version | Previous Version | Graphics & Text | Print | Product List | Glossary On
Versions: 1 2 3 4 5 6 7 8 9 10 11 12 13 14 15 16 17 18 19 20 21 22 23 24 25 26 27 28 29 30 31 32 33 34 35 36 37 38 39 40 41 42 43 44 45 46 47 48 49 50
000
ASUS43 KFSD 200210
RWRFSD

WEATHER ROUNDUP FOR SE SOUTH DAKOTA/SW MINNESOTA/NW IOWA
NATIONAL WEATHER SERVICE SIOUX FALLS SD
800 PM CST FRI DEC 19 2014

NOTE: "FAIR" INDICATES FEW OR NO CLOUDS BELOW 12,000 FEET WITH NO
SIGNIFICANT WEATHER AND OR OBSTRUCTIONS TO VISIBILITY.


SDZ038>040-050-052>070-200300-
SOUTHEAST SOUTH DAKOTA

CITY           SKY/WX    TMP DP  RH WIND       PRES   REMARKS
CHAMBERLAIN    PTCLDY    23  22  96 SE7       29.99S FOG     WCI  14
HURON          CLOUDY    30  27  88 S14       30.03S WCI  19
MADISON        CLOUDY    28  28 100 S18       30.05S WCI  16
MITCHELL       CLOUDY    30  28  92 S10       30.06S FOG     WCI  21
SIOUX FALLS    CLOUDY    31  28  89 S10       30.08S WCI  22
WINNER         FAIR      25  20  81 SW8       29.98S WCI  16
YANKTON        CLOUDY    32  28  86 SE7       30.08S WCI  26
$$

MNZ071-072-080-081-089-090-097-098-200300-
SOUTHWEST MINNESOTA

CITY           SKY/WX    TMP DP  RH WIND       PRES   REMARKS
FAIRMONT       CLOUDY    30  25  80 S10       30.14S WCI  21
JACKSON        CLOUDY    32  28  86 S10       30.11F WCI  24
LUVERNE        CLOUDY    32  30  93 S8        30.10R FOG     WCI  25
MARSHALL       CLOUDY    30  27  86 SW17      30.09F WCI  18
MONTEVIDEO     CLOUDY    30  30 100 SW7       30.10F FOG     WCI  23
PIPESTONE      CLOUDY    30  28  93 S6        30.06F FOG     WCI  24
REDWOOD FALLS  CLOUDY    33  29  85 S9        30.12S WCI  25
TRACY          CLOUDY    32  29  90 S7G18     30.09S WCI  25
WINDOM         CLOUDY    32  28  86 S13G18    30.10F WCI  22
WORTHINGTON    CLOUDY    30  27  86 S15       30.10F WCI  19
$$

IAZ001>003-012>014-020>022-031-032-NEZ013-014-SDZ071-200300-
NORTHWEST IOWA

CITY           SKY/WX    TMP DP  RH WIND       PRES   REMARKS
CHEROKEE       CLOUDY    32  29  91 S9        30.13F WCI  24
DENISON        CLOUDY    30  30 100 S12       30.13S WCI  21
ESTHERVILLE    CLOUDY    30  29  96 S10       30.13S WCI  21
LE MARS        CLOUDY    32  28  86 S8G14     30.11F WCI  25
ORANGE CITY    CLOUDY    32  27  80 S12       30.10S WCI  23
SHELDON        CLOUDY    30  30 100 S14       30.09F WCI  20
SIOUX CITY     CLOUDY    33  28  81 SE7       30.12F WCI  27
SPENCER        CLOUDY    32  27  81 SW13      30.13S WCI  22
STORM LAKE     CLOUDY    30  30 100 S12       30.14R FOG     WCI  21
$$

ABBREVIATIONS USED IN REMARKS
   TC - TEMPERATURE IN CELSIUS
  WCI - WIND CHILL INDEX
   HX - HEAT INDEX
  VSB - VISIBILITY



USA.gov is the U.S. government's official web portal to all federal, state and local government web resources and services.